[[{"header":{"parameterUnit":"m.s-1","parameterCategory":1,"la1":30.2991,"la2":30.254,"lo1":-89.0895,"lo2":-89.0444,"dy":0.0017,"dx":0.0017,"nx":28,"ny":28,"refTime":"2024-03-17T03:00:00:Z","depth":0,"parameterNumber":2,"parameterNumberName":"U-component_of_WINDS"},"data":[0,0,0,0,0,0,0,0,0,0,0,0,0,0,0,0,0,0,0,0,0,0,0,0,0,0,0,0,0,0,0,0,0,0,0,0,0,0,0,0,0,0,0,0,0,0,0,0,0,0,0,0,0,0,0,0,0,0,0.5853,0.5852,0,0.5756,0.5754,0.5753,0.5737,0.5738,0.5739,0.574,0.5634,0.563,0.5626,0,0,0,0,0,0,0,0,0,0,0,0,0,0.602,0.6017,0.5853,0.5852,0.585,0.5756,0.5754,0.5753,0.5737,0.5738,0.5739,0.574,0.5635,0.563,0.5626,0,0,0,0,0,0,0,0,0,0,0,0,0,0.5937,0.6016,0.5853,0.5831,0.5828,0.5756,0.5754,0.5753,0.5737,0.5738,0.574,0.5741,0.5636,0.5631,0.5625,0.5566,0,0,0.5609,0.5606,0,0,0,0,0,0,0,0,0.5942,0.5931,0.5836,0.5833,0.5829,0.576,0.5774,0.569,0.5737,0.5771,0.574,0.5742,0.5674,0.5666,0.5644,0.5561,0.5556,0.5608,0.5605,0.5603,0.5601,0,0,0,0,0,0,0,0.5948,0.5935,0.5814,0.5834,0.583,0.5825,0.5815,0.5758,0.5716,0.5769,0.5767,0.5756,0.5673,0.565,0.5642,0.5555,0.5608,0.5604,0.56,0.5598,0.5418,0.5416,0,0,0,0,0,0,0.5958,0.594,0.5817,0.5811,0.589,0.5821,0.5809,0.5781,0.5717,0.5709,0.5755,0.5756,0.5658,0.5648,0.5638,0.5564,0.5603,0.5598,0.5594,0.5419,0.5417,0.5416,0,0,0,0,0,0,0.5962,0.5948,0.5821,0.5875,0.5859,0.5817,0.5785,0.5778,0.5755,0.5707,0.5699,0.574,0.5659,0.5646,0.5584,0.556,0.5595,0.559,0.5421,0.5419,0.5417,0.5415,0,0,0,0,0,0,0.5967,0.5949,0.5927,0.5875,0.5856,0.5771,0.5783,0.5775,0.5747,0.5747,0.569,0.5682,0.5659,0.5593,0.5579,0.5553,0.5586,0.5423,0.542,0.5417,0.5417,0.5413,0.541,0,0,0,0,0,0.5973,0.5929,0.5926,0.5911,0.5828,0.5769,0.5758,0.5734,0.5745,0.5721,0.5691,0.5684,0.5565,0.5587,0.5571,0.5543,0.5424,0.5421,0.5418,0.5419,0.5414,0.541,0,0,0,0,0,0,0.5975,0.5921,0.5917,0.5856,0.5818,0.5767,0.5736,0.573,0.5686,0.5687,0.5657,0.5645,0.5585,0.5558,0.5583,0.5482,0.5495,0.5489,0.5502,0.5497,0.5493,0.55,0.5581,0,0,0,0,0,0.597,0.5928,0.5883,0.5832,0.5814,0.5779,0.5752,0.5738,0.5696,0.5679,0.5644,0.5602,0.5555,0.5525,0.5479,0.5414,0.5401,0.5387,0.5383,0.5381,0.5374,0.5338,0.5331,0.5405,0.5405,0.5405,0,0,0.5955,0.5921,0.5896,0.5832,0.5801,0.5757,0.5765,0.5718,0.5685,0.5671,0.5612,0.5585,0.5536,0.5473,0.5443,0.5448,0.5352,0.5376,0.5374,0.5369,0.5334,0.5327,0.5321,0.5402,0.5403,0.5403,0,0,0.5907,0.5877,0.5832,0.5802,0.5756,0.5733,0.5723,0.5674,0.5656,0.5597,0.5585,0.5545,0.5465,0.5431,0.5403,0.5346,0.5337,0.5331,0.5311,0.5276,0.527,0.5265,0.5243,0.5236,0.5326,0.5326,0.5326,0,0.5894,0.583,0.5809,0.5764,0.5736,0.5725,0.5678,0.5649,0.5589,0.5569,0.5577,0.5478,0.5444,0.5373,0.5359,0.5337,0.5323,0.5336,0.5273,0.5267,0.5262,0.5241,0.5233,0.5325,0.5325,0.5325,0.5326,0,0.5817,0.5773,0.5742,0.5687,0.5656,0.561,0.5581,0.5552,0.5541,0.5517,0.5457,0.5417,0.5363,0.5345,0.5333,0.5272,0.5277,0.5279,0.5292,0.5255,0.5235,0.5226,0.5325,0.5325,0.5325,0.5325,0,0,0.5764,0.5702,0.569,0.5666,0.5616,0.558,0.5534,0.5484,0.5459,0.5419,0.5379,0.5313,0.5315,0.5284,0.5268,0.5237,0.5193,0.5243,0.5241,0.5234,0.5124,0.5122,0.5113,0.5189,0.5187,0.5186,0.5128,0,0.5709,0.5628,0.5609,0.5539,0.5498,0.5488,0.5448,0.5412,0.5389,0.5349,0.5324,0.5277,0.5284,0.5265,0.5235,0.5205,0.517,0.5209,0.5149,0.5147,0.516,0.5102,0.5099,0.5046,0.512,0.5118,0.5117,0,0.5633,0.5594,0.5521,0.5478,0.546,0.5424,0.5377,0.5341,0.5299,0.5285,0.5252,0.5239,0.5189,0.5207,0.5137,0.5164,0.5138,0.512,0.5117,0.5109,0.5128,0.5091,0.5028,0.502,0.5105,0.5106,0.5107,0,0.5601,0.553,0.5478,0.5457,0.5406,0.5381,0.5358,0.5318,0.529,0.5249,0.523,0.5183,0.5157,0.512,0.5095,0.511,0.5027,0.5042,0.5012,0.5012,0.4992,0.4994,0.4923,0.4979,0.4979,0.498,0.498,0,0.554,0.5495,0.5463,0.543,0.538,0.5359,0.5309,0.5285,0.5251,0.5212,0.52,0.5164,0.5134,0.5093,0.5073,0.5018,0.5006,0.4992,0.4986,0.4992,0.4993,0.4973,0.4975,0.4977,0.4978,0.4978,0.4979,0,0.5494,0.5471,0.5413,0.537,0.5358,0.5323,0.5285,0.5252,0.5231,0.5183,0.517,0.5135,0.5087,0.5059,0.4997,0.4983,0.4922,0.4919,0.4936,0.4934,0.4905,0.4907,0.4817,0.4804,0.487,0.487,0.4869,0,0.5456,0.5422,0.5376,0.5351,0.5329,0.5288,0.526,0.5238,0.5209,0.5162,0.5134,0.5086,0.5046,0.4969,0.4937,0.489,0.4884,0.4856,0.4877,0.4884,0.4882,0.4884,0.488,0.4852,0.4851,0.4851,0.485,0,0.539,0.5381,0.5343,0.5301,0.5269,0.5234,0.5199,0.5178,0.5151,0.5119,0.5071,0.504,0.4979,0.4931,0.4881,0.4855,0.4847,0.4845,0.4835,0.4839,0.485,0.4843,0.4925,0.4846,0.4847,0.4847,0.4847,0.4847,0.5346,0.5315,0.5279,0.5237,0.521,0.5178,0.5146,0.5122,0.5082,0.5032,0.5022,0.4971,0.4931,0.4865,0.4839,0.4797,0.4802,0.4788,0.4784,0.4781,0.4779,0.4859,0.4788,0.4788,0.4788,0.4789,0.4789,0,0.5278,0.5256,0.5217,0.5171,0.5138,0.5137,0.5099,0.5071,0.5027,0.4992,0.4955,0.49,0.4853,0.4819,0.4771,0.4745,0.474,0.4733,0.4734,0.4728,0.4778,0.4791,0.4738,0.4738,0.4738,0.4738,0.4738,0.4738,0.5239,0.5188,0.5175,0.511,0.5087,0.5039,0.5017,0.4988,0.496,0.49,0.4863,0.4842,0.4807,0.4758,0.4715,0.4706,0.4688,0.4681,0.4671,0.4719,0.4724,0.4729,0.4741,0.4678,0.4678,0.4624,0.4623,0.4623]},{"header":{"parameterUnit":"m.s-1","parameterCategory":1,"la1":30.2991,"la2":30.254,"lo1":-89.0895,"lo2":-89.0444,"dy":0.0017,"dx":0.0017,"nx":28,"ny":28,"refTime":"2024-03-17T03:00:00:Z","depth":0,"parameterNumber":3,"parameterNumberName":"V-component_of_WINDS"},"data":[0,0,0,0,0,0,0,0,0,0,0,0,0,0,0,0,0,0,0,0,0,0,0,0,0,0,0,0,0,0,0,0,0,0,0,0,0,0,0,0,0,0,0,0,0,0,0,0,0,0,0,0,0,0,0,0,0,0,-0.7801,-0.78,0,-0.7742,-0.7741,-0.7741,-0.771,-0.771,-0.771,-0.771,-0.7649,-0.7647,-0.7645,0,0,0,0,0,0,0,0,0,0,0,0,0,-0.7887,-0.7886,-0.7801,-0.78,-0.78,-0.7742,-0.7741,-0.774,-0.771,-0.771,-0.771,-0.771,-0.7649,-0.7647,-0.7645,0,0,0,0,0,0,0,0,0,0,0,0,0,-0.7841,-0.7885,-0.7801,-0.7778,-0.7775,-0.7742,-0.7741,-0.774,-0.771,-0.771,-0.771,-0.771,-0.765,-0.7647,-0.7645,-0.7631,0,0,-0.7638,-0.7637,0,0,0,0,0,0,0,0,-0.7844,-0.7838,-0.7782,-0.7779,-0.7776,-0.7733,-0.7749,-0.7703,-0.771,-0.7735,-0.771,-0.771,-0.7677,-0.7672,-0.7661,-0.7628,-0.7625,-0.7637,-0.7636,-0.7635,-0.7634,0,0,0,0,0,0,0,-0.7847,-0.784,-0.7778,-0.7781,-0.7778,-0.777,-0.7763,-0.774,-0.7707,-0.7733,-0.773,-0.7724,-0.7675,-0.7664,-0.7659,-0.7624,-0.7637,-0.7635,-0.7634,-0.7633,-0.7576,-0.7576,0,0,0,0,0,0,-0.7854,-0.7843,-0.778,-0.7776,-0.7811,-0.7768,-0.7761,-0.7747,-0.7707,-0.7701,-0.7724,-0.7723,-0.7668,-0.7662,-0.7657,-0.7637,-0.7635,-0.7633,-0.7631,-0.7576,-0.7576,-0.7576,0,0,0,0,0,0,-0.7856,-0.7849,-0.7782,-0.7809,-0.78,-0.7767,-0.7752,-0.7746,-0.7734,-0.77,-0.7694,-0.7718,-0.7667,-0.7661,-0.7638,-0.7635,-0.7632,-0.7629,-0.7576,-0.7576,-0.7576,-0.7598,0,0,0,0,0,0,-0.7859,-0.785,-0.7844,-0.7809,-0.7798,-0.7764,-0.7752,-0.7745,-0.773,-0.7728,-0.7693,-0.7687,-0.7667,-0.7641,-0.7635,-0.7631,-0.7627,-0.7576,-0.7576,-0.7576,-0.7598,-0.7599,-0.76,0,0,0,0,0,-0.7862,-0.7853,-0.7844,-0.7836,-0.7791,-0.7764,-0.7757,-0.7734,-0.773,-0.7724,-0.7702,-0.7688,-0.7636,-0.7639,-0.7632,-0.7628,-0.7576,-0.7576,-0.7576,-0.7597,-0.7599,-0.76,0,0,0,0,0,0,-0.7888,-0.7847,-0.7838,-0.7817,-0.7794,-0.7759,-0.775,-0.7737,-0.7714,-0.7713,-0.7685,-0.7678,-0.7657,-0.764,-0.7644,-0.7611,-0.7605,-0.7603,-0.7623,-0.7625,-0.7626,-0.763,-0.7625,0,0,0,0,0,-0.7891,-0.7873,-0.7838,-0.7823,-0.7812,-0.7783,-0.7771,-0.7755,-0.773,-0.772,-0.7696,-0.7672,-0.765,-0.7637,-0.7615,-0.7595,-0.7587,-0.7589,-0.759,-0.7591,-0.759,-0.7578,-0.7578,-0.7576,-0.7576,-0.7576,0,0,-0.7898,-0.7873,-0.7863,-0.7828,-0.7808,-0.7789,-0.7775,-0.7756,-0.7742,-0.7717,-0.7694,-0.7676,-0.7647,-0.7626,-0.7615,-0.7611,-0.7589,-0.7591,-0.7592,-0.759,-0.7578,-0.7578,-0.7578,-0.7575,-0.7575,-0.7576,0,0,-0.79,-0.788,-0.7865,-0.7846,-0.7816,-0.7797,-0.7794,-0.776,-0.7748,-0.7724,-0.7705,-0.7687,-0.765,-0.7631,-0.7616,-0.7611,-0.7597,-0.7605,-0.7611,-0.76,-0.76,-0.76,-0.7598,-0.7597,-0.7604,-0.7604,-0.7604,0,-0.7911,-0.7883,-0.7859,-0.784,-0.7825,-0.7803,-0.7787,-0.7769,-0.7734,-0.7724,-0.772,-0.7673,-0.7652,-0.7626,-0.7625,-0.7614,-0.7608,-0.7608,-0.7602,-0.7602,-0.7601,-0.7599,-0.7598,-0.7605,-0.7605,-0.7605,-0.7604,0,-0.7898,-0.7878,-0.787,-0.7837,-0.7821,-0.7804,-0.7777,-0.7764,-0.775,-0.7731,-0.7707,-0.7681,-0.7654,-0.7646,-0.7632,-0.7618,-0.7616,-0.7607,-0.76,-0.7603,-0.76,-0.7599,-0.7606,-0.7606,-0.7606,-0.7605,0,0,-0.7914,-0.7869,-0.7866,-0.7851,-0.7817,-0.7801,-0.7783,-0.7756,-0.7745,-0.7722,-0.7706,-0.7675,-0.7667,-0.765,-0.7634,-0.7624,-0.7621,-0.7616,-0.7615,-0.7618,-0.7603,-0.761,-0.7609,-0.7612,-0.7612,-0.7612,-0.7606,0,-0.7911,-0.7879,-0.7857,-0.7832,-0.7813,-0.7792,-0.7776,-0.7754,-0.7736,-0.7717,-0.7697,-0.7675,-0.7667,-0.7656,-0.7646,-0.7624,-0.7618,-0.7624,-0.7596,-0.7596,-0.7604,-0.7608,-0.7614,-0.761,-0.7604,-0.7604,-0.7604,0,-0.7903,-0.7881,-0.7855,-0.7823,-0.7814,-0.7801,-0.7774,-0.7757,-0.7731,-0.7718,-0.77,-0.7683,-0.7663,-0.7658,-0.763,-0.7634,-0.7622,-0.7609,-0.7609,-0.7605,-0.76,-0.7603,-0.7608,-0.7607,-0.7602,-0.7602,-0.7602,0,-0.7917,-0.7881,-0.786,-0.7848,-0.781,-0.7801,-0.7785,-0.7759,-0.7744,-0.7721,-0.7711,-0.7686,-0.7673,-0.7653,-0.763,-0.7629,-0.7604,-0.7597,-0.7593,-0.7593,-0.7588,-0.7589,-0.759,-0.7581,-0.7581,-0.7581,-0.7581,0,-0.7916,-0.7901,-0.7866,-0.7853,-0.7835,-0.7811,-0.7793,-0.7775,-0.7752,-0.7736,-0.7715,-0.77,-0.7671,-0.7652,-0.7633,-0.7612,-0.7606,-0.7595,-0.7591,-0.7597,-0.7598,-0.7588,-0.7587,-0.7581,-0.7581,-0.7581,-0.7581,0,-0.7928,-0.7904,-0.7881,-0.7847,-0.7838,-0.7827,-0.7798,-0.7785,-0.7766,-0.7745,-0.7739,-0.7709,-0.7685,-0.7661,-0.7629,-0.7616,-0.7596,-0.759,-0.7605,-0.7602,-0.7599,-0.7599,-0.7593,-0.7591,-0.7584,-0.7584,-0.7585,0,-0.7929,-0.7916,-0.7882,-0.7869,-0.7854,-0.7834,-0.7819,-0.7794,-0.7779,-0.7749,-0.7739,-0.7714,-0.7693,-0.7656,-0.7632,-0.7607,-0.7599,-0.7599,-0.7596,-0.7602,-0.7599,-0.76,-0.7598,-0.76,-0.76,-0.76,-0.76,0,-0.7932,-0.7921,-0.79,-0.7875,-0.7858,-0.7837,-0.7816,-0.7807,-0.7777,-0.7762,-0.7738,-0.7721,-0.7689,-0.7664,-0.7637,-0.7619,-0.7605,-0.7602,-0.7599,-0.7605,-0.7615,-0.7609,-0.7607,-0.7602,-0.7602,-0.7602,-0.7602,-0.7602,-0.7937,-0.7925,-0.7899,-0.7877,-0.7858,-0.7839,-0.7825,-0.7804,-0.7784,-0.7756,-0.7742,-0.7718,-0.7692,-0.7654,-0.7637,-0.7618,-0.7613,-0.761,-0.7609,-0.7608,-0.761,-0.7618,-0.7613,-0.7612,-0.7612,-0.7612,-0.7612,0,-0.7939,-0.7921,-0.7901,-0.7872,-0.7854,-0.7843,-0.7818,-0.7804,-0.7783,-0.776,-0.774,-0.7712,-0.7688,-0.7662,-0.7637,-0.7626,-0.7619,-0.762,-0.762,-0.7617,-0.7615,-0.762,-0.7626,-0.7626,-0.7626,-0.7626,-0.7626,-0.7626,-0.7938,-0.7917,-0.7903,-0.7872,-0.7854,-0.7831,-0.7818,-0.78,-0.7781,-0.7751,-0.7731,-0.7715,-0.769,-0.7663,-0.764,-0.7633,-0.7624,-0.7628,-0.7619,-0.7618,-0.7617,-0.7616,-0.762,-0.7626,-0.7626,-0.7621,-0.7621,-0.7621]}]]